Wind_Speed
55 53 52 50 48 47 47 46 46 45 45 46 46 46 47 48 49 49 50 50 51 51 52 52 53 53 54 54 54 54 53 53 53 53 53 54 54 54 55 55 55 56
54 52 50 48 47 46 45 45 45 46 47 47 48 49 49 50 50 51 51 52 52 52 52 52 53 54 54 54 55 55 55 55 54 55 55 55 56 56 56 56 57 57
51 49 48 46 45 45 45 45 46 47 48 49 50 51 51 52 52 53 53 54 54 54 54 54 54 55 55 56 56 56 56 56 56 57 57 57 58 59 58 59 59 59
50 48 47 46 45 45 45 46 46 48 49 50 51 52 53 53 54 54 55 55 55 56 56 56 56 56 57 58 58 58 58 59 59 59 59 59 60 61 61 62 62 62
49 48 47 46 46 46 47 48 48 49 50 51 52 53 54 55 55 56 56 57 57 57 58 58 58 59 59 60 60 61 61 61 61 62 62 62 62 63 63 64 65 64
48 48 48 48 48 48 49 50 51 52 52 53 54 55 55 56 57 57 58 58 59 59 59 60 60 61 61 62 62 63 64 64 64 64 65 64 64 64 64 65 66 66
48 48 49 49 49 50 51 52 53 54 54 55 56 57 57 58 58 59 60 60 61 61 62 62 62 63 63 64 64 65 65 65 66 66 66 66 66 65 64 65 65 66
48 49 50 50 51 51 52 53 54 55 56 57 57 58 59 60 60 61 61 62 62 63 63 64 64 64 65 65 66 66 66 66 66 67 67 67 67 66 66 65 65 66
49 50 51 52 53 53 54 55 56 56 57 58 59 60 60 61 62 62 63 63 64 64 64 64 65 65 65 65 65 65 66 66 66 66 66 67 67 67 66 66 67 67
50 51 52 53 54 55 56 56 57 58 59 59 60 61 61 62 62 63 64 64 64 64 64 64 64 64 64 64 64 64 64 65 65 65 66 66 66 67 66 66 67 67
52 53 54 55 55 56 57 58 58 59 60 60 61 62 62 63 63 64 64 64 64 64 63 63 63 63 64 63 63 63 64 64 64 65 65 65 66 66 66 66 67 67
55 55 56 57 57 58 59 59 60 60 61 61 61 62 62 63 63 63 63 63 63 62 62 62 62 63 63 64 64 64 64 65 65 65 65 65 65 66 66 66 66 67
57 58 58 59 59 60 60 60 61 61 61 61 61 62 62 62 62 61 61 61 61 61 61 61 61 62 62 63 63 63 64 65 65 65 65 65 66 66 66 66 67 66
59 59 60 60 60 61 61 61 61 61 61 62 61 61 61 61 60 60 60 59 59 59 60 60 60 61 61 61 62 62 63 64 64 64 65 66 66 66 66 67 67 66
60 60 60 60 60 61 61 61 62 62 61 61 60 60 59 59 59 58 58 58 58 58 58 58 59 59 59 60 61 61 62 63 63 64 66 67 68 68 67 67 67 66
60 60 60 60 61 61 61 62 61 61 60 59 58 58 57 57 57 56 57 57 57 57 57 57 57 57 57 57 58 59 60 62 63 65 66 67 68 69 69 68 67 66
60 60 60 60 60 60 60 60 59 59 58 57 56 56 56 55 55 55 55 55 55 56 56 56 55 54 54 55 55 56 58 60 62 63 64 66 66 67 68 68 67 66
59 59 60 59 59 58 58 57 57 56 55 55 55 55 54 54 54 54 54 54 54 54 54 54 53 52 53 54 54 55 56 56 58 59 61 62 62 63 64 64 64 64
58 59 59 58 57 56 56 55 55 54 54 54 54 54 54 54 53 53 53 53 52 52 52 52 51 51 52 52 53 53 53 52 51 52 54 55 55 56 56 57 57 58
58 58 57 56 55 55 54 54 53 53 52 52 53 53 53 53 53 52 52 51 50 50 51 50 50 50 50 50 50 49 48 45 45 46 48 49 49 49 50 51 52 52
57 57 56 55 54 54 53 53 52 52 52 51 52 52 52 52 52 51 50 49 48 48 50 50 49 48 47 46 46 44 41 39 40 43 46 47 47 47 46 47 47 47
56 56 55 54 54 53 53 52 52 51 51 51 51 51 50 50 50 49 48 47 46 47 49 49 47 44 43 43 41 37 35 35 38 42 46 48 49 47 44 42 42 43
56 55 55 54 53 52 52 51 51 50 50 50 50 50 49 48 48 47 46 45 46 46 47 46 44 41 39 38 35 33 32 35 40 44 47 48 48 47 43 40 38 38
54 53 53 52 51 51 51 50 50 49 48 48 49 49 48 47 46 46 44 44 45 45 44 43 42 39 35 32 31 31 33 36 40 43 46 47 47 46 42 38 36 34
52 51 51 51 50 50 50 49 49 48 47 47 47 47 47 46 46 45 45 44 43 42 40 40 38 35 30 27 28 30 32 34 38 42 45 46 45 44 41 37 34 32
50 50 50 50 50 49 48 48 47 47 46 46 46 46 46 45 44 45 45 43 41 39 37 34 32 30 25 23 26 30 31 33 37 41 43 43 43 42 39 36 32 28
Wind_Direction
309 307 305 303 302 300 298 296 294 293 291 290 290 289 288 288 288 287 286 286 285 284 283 282 282 281 280 280 279 279 278 278 277 277 277 277 277 277 277 277 277 276
307 305 303 301 299 297 295 294 293 292 291 291 291 291 291 291 290 290 289 288 287 286 285 285 284 283 282 281 280 280 279 279 278 278 277 277 276 276 276 276 276 277
307 305 303 301 299 297 296 294 294 294 294 294 294 294 294 294 293 293 292 291 290 289 288 287 286 285 284 283 282 281 281 280 279 279 279 278 278 277 277 276 276 276
306 305 303 301 300 299 298 297 296 296 296 296 296 296 295 295 295 294 294 293 292 291 290 289 288 287 286 285 284 283 282 282 281 280 279 279 279 279 278 277 276 275
305 304 302 301 301 300 299 299 298 298 297 297 297 297 296 296 295 295 294 294 293 292 291 290 289 288 287 286 285 285 284 283 282 281 280 279 279 279 278 278 277 276
303 303 302 301 301 301 301 301 300 300 300 299 299 298 298 297 296 296 295 294 293 293 292 291 290 289 288 287 286 285 285 284 283 282 281 280 279 278 278 277 277 276
303 303 303 302 303 303 303 302 302 302 301 301 300 299 299 298 297 296 296 295 294 293 292 292 291 290 289 288 287 286 285 285 284 283 282 281 280 279 278 277 276 276
304 304 304 304 304 304 304 304 303 302 302 301 301 300 299 299 298 297 296 295 294 294 293 292 292 291 290 289 288 287 286 286 285 284 283 282 281 280 279 278 276 275
306 306 306 305 305 305 304 304 303 303 302 301 301 300 300 299 299 298 297 296 296 295 294 293 293 292 291 290 290 289 288 287 286 285 284 283 282 281 279 279 277 276
308 307 307 306 306 305 304 304 303 303 302 301 301 300 300 299 299 298 298 297 297 296 295 295 294 293 292 292 291 290 289 288 287 286 285 284 283 281 280 279 278 276
310 309 308 307 307 306 305 305 304 303 303 302 302 301 301 300 300 299 298 298 298 297 297 296 295 295 294 293 292 291 290 289 288 287 286 284 283 282 281 279 278 277
311 310 309 308 308 307 307 306 306 305 304 304 303 303 302 302 301 300 300 299 299 298 298 297 297 296 295 295 294 293 292 291 289 288 287 286 284 283 282 280 279 277
311 311 310 310 309 309 308 307 307 306 306 305 305 304 303 303 302 301 300 300 299 299 298 298 297 297 296 295 295 294 293 292 291 290 289 287 286 284 283 281 280 278
312 311 311 310 310 309 309 308 308 307 307 306 306 305 304 303 302 301 301 300 300 299 299 298 298 297 297 296 295 294 293 292 291 290 288 287 285 283 282 281 279 278
312 312 311 311 310 310 309 309 308 308 307 306 306 305 304 303 302 302 301 301 300 300 299 299 298 298 298 297 296 296 295 293 292 290 289 287 285 284 282 280 279 277
313 313 312 312 311 311 310 309 309 308 307 306 305 304 303 303 302 302 302 301 301 300 299 299 299 299 299 298 298 297 297 296 294 293 292 290 289 287 286 284 282 279
314 313 313 312 312 311 310 309 308 308 307 306 306 305 304 304 303 303 303 302 301 301 301 300 300 301 300 299 299 299 298 297 296 294 293 291 290 289 287 285 284 281
314 313 312 312 311 310 310 309 308 308 308 307 306 306 305 305 304 304 303 303 303 303 302 302 302 303 302 302 302 301 299 298 297 295 293 292 290 289 287 286 284 282
314 313 313 312 312 311 311 310 310 309 309 308 307 306 306 305 305 305 305 305 305 304 304 304 304 304 305 305 303 301 300 300 298 296 295 295 294 292 290 288 285 283
315 315 314 314 313 313 312 312 311 310 310 309 308 307 307 306 306 306 306 306 307 306 305 305 306 307 307 306 304 303 302 302 300 300 299 299 299 298 295 292 288 284
317 316 316 315 315 314 313 313 312 312 312 310 310 309 309 308 308 307 307 308 308 308 307 307 309 310 309 307 306 306 304 303 302 302 302 303 303 302 299 296 291 285
319 318 317 317 316 315 315 314 314 314 314 312 311 310 310 310 309 310 310 311 310 310 310 311 312 312 311 309 308 307 306 303 301 300 301 302 303 303 301 297 293 287
320 319 319 318 318 317 317 317 316 316 315 315 313 312 312 312 312 312 313 313 312 313 314 314 314 314 313 310 309 309 307 302 298 298 299 300 301 302 301 298 294 286
321 321 320 320 320 320 320 319 319 318 317 317 316 315 315 315 315 315 315 315 316 316 317 316 316 315 314 313 312 311 306 301 298 299 299 299 300 301 302 300 294 285
323 323 323 323 322 322 322 321 321 320 320 320 319 318 318 317 318 317 316 317 319 319 319 318 315 315 317 316 313 313 311 305 300 298 297 298 299 302 304 302 294 284
326 326 326 325 324 324 323 323 323 322 322 322 321 319 319 319 319 318 318 320 321 320 320 318 315 317 319 315 317 324 321 309 298 295 295 297 298 301 303 301 295 284
Height
2967 2965 2962 2960 2958 2955 2953 2950 2948 2947 2945 2943 2942 2940 2939 2938 2936 2934 2933 2931 2930 2928 2926 2925 2923 2921 2919 2917 2915 2914 2913 2911 2910 2909 2908 2907 2906 2904 2904 2904 2902 2901
2961 2959 2956 2954 2952 2949 2947 2945 2942 2940 2938 2936 2934 2933 2931 2930 2928 2926 2924 2923 2921 2920 2918 2916 2914 2912 2910 2909 2907 2905 2904 2903 2902 2900 2899 2898 2897 2895 2895 2894 2893 2892
2955 2952 2950 2947 2945 2943 2941 2939 2937 2934 2931 2929 2927 2925 2923 2921 2919 2917 2915 2913 2912 2910 2909 2907 2905 2903 2901 2899 2897 2896 2895 2894 2893 2891 2889 2889 2888 2886 2886 2885 2884 2883
2948 2946 2944 2941 2939 2937 2935 2933 2930 2928 2925 2923 2920 2918 2916 2913 2911 2909 2907 2905 2903 2901 2899 2897 2896 2894 2892 2890 2888 2886 2885 2884 2883 2881 2880 2880 2878 2876 2876 2875 2873 2874
2943 2940 2938 2936 2933 2931 2928 2926 2924 2921 2919 2917 2914 2911 2908 2906 2904 2901 2899 2897 2894 2892 2890 2888 2886 2884 2882 2880 2878 2876 2875 2874 2872 2871 2869 2870 2869 2867 2866 2864 2862 2863
2938 2935 2932 2930 2927 2924 2922 2919 2916 2914 2911 2909 2906 2904 2901 2898 2896 2893 2890 2888 2886 2883 2881 2879 2877 2874 2872 2870 2868 2866 2865 2863 2861 2860 2858 2858 2858 2857 2856 2853 2851 2851
2932 2929 2926 2924 2921 2918 2915 2912 2909 2907 2904 2901 2899 2896 2893 2890 2887 2885 2882 2879 2877 2874 2872 2869 2867 2865 2862 2859 2858 2856 2854 2852 2850 2848 2847 2846 2846 2845 2845 2842 2840 2840
2927 2924 2921 2918 2915 2912 2909 2906 2903 2900 2897 2894 2891 2888 2884 2881 2879 2876 2873 2870 2868 2865 2862 2860 2857 2854 2852 2849 2847 2845 2843 2841 2839 2837 2836 2835 2834 2834 2833 2831 2829 2829
2921 2918 2915 2911 2908 2906 2902 2899 2896 2893 2889 2886 2883 2880 2876 2873 2870 2867 2864 2861 2858 2855 2852 2850 2847 2844 2842 2839 2836 2834 2832 2830 2829 2826 2825 2824 2823 2822 2822 2819 2817 2817
2915 2912 2909 2905 2902 2899 2895 2892 2889 2885 2882 2878 2875 2872 2868 2865 2861 2858 2854 2851 2848 2845 2842 2839 2836 2834 2831 2829 2826 2824 2821 2820 2818 2816 2814 2812 2811 2810 2810 2808 2806 2805
2908 2905 2902 2898 2895 2891 2887 2884 2880 2877 2874 2870 2866 2863 2859 2855 2852 2848 2845 2841 2838 2835 2832 2829 2826 2823 2820 2818 2815 2813 2810 2808 2806 2805 2803 2801 2800 2799 2798 2797 2795 2794
2901 2897 2894 2890 2887 2883 2879 2875 2871 2868 2864 2861 2857 2853 2850 2846 2842 2838 2835 2831 2828 2825 2822 2819 2816 2812 2809 2807 2804 2801 2798 2796 2794 2792 2791 2790 2789 2788 2786 2785 2783 2783
2893 2889 2885 2882 2878 2874 2870 2866 2863 2859 2855 2851 2848 2844 2840 2836 2833 2829 2826 2822 2819 2816 2812 2809 2806 2803 2800 2797 2794 2791 2787 2785 2783 2780 2779 2778 2777 2775 2774 2772 2772 2771
2886 2882 2878 2874 2870 2866 2862 2858 2854 2850 2846 2843 2839 2835 2831 2827 2824 2820 2817 2814 2811 2807 2804 2800 2797 2794 2791 2787 2784 2781 2778 2775 2773 2770 2768 2766 2765 2764 2763 2761 2760 2760
2879 2875 2871 2867 2863 2859 2854 2850 2846 2842 2838 2835 2831 2826 2823 2819 2815 2812 2808 2805 2802 2799 2796 2792 2789 2785 2782 2778 2774 2771 2768 2764 2762 2759 2756 2754 2752 2752 2751 2750 2749 2749
2872 2868 2863 2859 2855 2850 2846 2842 2838 2834 2830 2826 2822 2819 2815 2811 2807 2804 2800 2796 2793 2790 2787 2784 2781 2777 2774 2770 2767 2762 2758 2753 2750 2747 2744 2741 2739 2737 2736 2735 2735 2735
2864 2860 2856 2851 2847 2842 2838 2834 2830 2826 2822 2818 2814 2810 2806 2802 2799 2795 2792 2788 2784 2781 2778 2775 2772 2770 2766 2762 2759 2755 2750 2745 2740 2737 2734 2731 2728 2725 2723 2722 2720 2720
2858 2853 2849 2845 2840 2836 2831 2827 2822 2818 2814 2810 2806 2802 2798 2795 2791 2787 2784 2780 2776 2773 2770 2767 2764 2761 2757 2753 2751 2747 2742 2737 2732 2728 2725 2722 2719 2716 2713 2710 2709 2707
2851 2846 2842 2838 2833 2828 2824 2820 2815 2811 2807 2802 2798 2795 2790 2787 2783 2779 2776 2773 2768 2764 2761 2759 2757 2754 2749 2745 2742 2738 2734 2730 2724 2720 2716 2713 2710 2707 2704 2701 2699 2697
2844 2839 2835 2831 2826 2821 2817 2813 2808 2804 2800 2795 2791 2787 2783 2779 2776 2772 2769 2766 2762 2757 2754 2751 2749 2746 2741 2738 2733 2730 2726 2722 2717 2713 2709 2706 2703 2700 2696 2693 2691 2689
2837 2832 2828 2824 2819 2814 2810 2806 2801 2797 2792 2788 2784 2780 2776 2772 2768 2764 2761 2759 2755 2750 2746 2744 2742 2738 2734 2730 2726 2722 2719 2715 2711 2707 2703 2700 2697 2693 2690 2686 2684 2682
2831 2826 2822 2817 2812 2808 2803 2799 2794 2790 2785 2780 2776 2773 2769 2765 2761 2758 2754 2751 2748 2744 2739 2736 2735 2731 2726 2723 2719 2716 2713 2710 2706 2702 2698 2694 2690 2687 2684 2681 2678 2675
2825 2819 2815 2810 2806 2801 2796 2792 2788 2783 2779 2774 2769 2766 2763 2759 2755 2752 2749 2745 2741 2737 2733 2729 2727 2724 2720 2716 2714 2711 2709 2705 2701 2696 2692 2687 2683 2681 2678 2675 2672 2670
2819 2814 2808 2804 2799 2795 2790 2786 2781 2777 2773 2768 2763 2759 2755 2752 2748 2745 2743 2739 2735 2731 2727 2722 2719 2717 2714 2711 2709 2707 2705 2701 2696 2690 2685 2681 2677 2674 2672 2669 2667 2665
2814 2808 2803 2798 2794 2789 2785 2780 2775 2771 2767 2763 2758 2753 2749 2746 2742 2738 2736 2733 2729 2725 2722 2717 2713 2711 2709 2707 2705 2704 2701 2696 2690 2684 2679 2674 2671 2668 2665 2663 2661 2659
2809 2804 2799 2794 2789 2784 2780 2775 2770 2766 2762 2758 2753 2749 2744 2741 2738 2733 2730 2727 2725 2721 2717 2714 2709 2706 2706 2704 2702 2699 2695 2690 2685 2679 2673 2669 2665 2662 2659 2657 2655 2654